DH0GMA Weather Reports


Display with metric or nautical units.
time (UTC)temp
F
wind
direction
speed
MPH
gust
MPH
rain 1hr
in
rain 24hr
in
rain mn
in
humidity
%
barometer
mb
20260904073746 69 175 1.0 5.0 0.00 0.00 0.00 71 1019.3
20260904072746 69 166 1.0 5.0 0.00 0.00 0.00 71 1019.3
20260904071746 68 160 2.0 4.0 0.00 0.00 0.00 73 1019.3
20260904070746 67 147 1.0 6.0 0.00 0.00 0.00 75 1019.4
20260904065746 66 183 1.0 4.0 0.00 0.00 0.00 77 1019.4
20260904064745 65 174 3.0 4.0 0.00 0.00 0.00 78 1019.6
20260904063745 64 247 0.0 2.0 0.00 0.00 0.00 80 1019.7
20260904062746 63 174 2.0 3.0 0.00 0.00 0.00 81 1019.7
20260904061746 62 157 0.0 3.0 0.00 0.00 0.00 81 1019.6
20260904060746 62 151 0.0 3.0 0.00 0.00 0.00 83 1019.6
20260904055746 61 168 2.0 4.0 0.00 0.00 0.00 84 1019.5
20260904054746 60 194 0.0 2.0 0.00 0.00 0.00 85 1019.5
20260904053745 60 194 0.0 1.0 0.00 0.00 0.00 85 1019.5
20260904052745 60 194 0.0 0.0 0.00 0.00 0.00 85 1019.6
20260904051745 60 194 0.0 0.0 0.00 0.00 0.00 85 1019.7
20260904050745 60 193 0.0 0.0 0.00 0.00 0.00 84 1019.8
20260904045745 60 193 0.0 2.0 0.00 0.00 0.00 84 1019.8
20260904044745 60 194 0.0 2.0 0.00 0.00 0.00 84 1019.9
20260904043745 61 194 0.0 2.0 0.00 0.00 0.00 83 1019.9
20260904042744 61 192 0.0 0.0 0.00 0.00 0.00 83 1019.9
20260904041744 61 185 0.0 2.0 0.00 0.00 0.00 82 1020.0
20260904040746 62 186 0.0 0.0 0.00 0.00 0.00 82 1020.1
20260904035746 62 186 0.0 0.0 0.00 0.00 0.00 82 1020.4
20260904034746 62 186 0.0 2.0 0.00 0.00 0.00 81 1020.5
20260904033746 62 186 1.0 3.0 0.00 0.00 0.00 82 1020.5
20260904032746 62 188 1.0 3.0 0.00 0.00 0.00 81 1020.6
20260904031746 62 189 1.0 4.0 0.00 0.00 0.00 81 1020.6
20260904030745 62 180 2.0 3.0 0.00 0.00 0.00 81 1020.6
20260904025745 62 125 1.0 5.0 0.00 0.00 0.00 81 1020.6
20260904024745 62 218 2.0 3.0 0.00 0.00 0.00 82 1020.6
20260904023745 62 211 2.0 4.0 0.00 0.00 0.00 82 1020.7
20260904022744 62 214 1.0 3.0 0.00 0.00 0.00 81 1020.7
20260904021744 62 191 2.0 4.0 0.00 0.00 0.00 81 1020.8
20260904020746 63 184 1.0 3.0 0.00 0.00 0.00 81 1020.8
20260904015746 63 172 2.0 3.0 0.00 0.00 0.00 80 1020.8
20260904014746 63 187 1.0 3.0 0.00 0.00 0.00 80 1020.7
20260904013746 63 182 1.0 3.0 0.00 0.00 0.00 80 1020.9
20260904012745 63 169 2.0 3.0 0.00 0.00 0.00 80 1020.9
20260904011745 63 181 1.0 2.0 0.00 0.00 0.00 79 1021.2
20260904010745 63 178 1.0 2.0 0.00 0.00 0.00 78 1021.3
20260904005745 63 178 0.0 1.0 0.00 0.00 0.00 78 1021.3
20260904004745 63 178 1.0 3.0 0.00 0.00 0.00 77 1021.3
20260904003746 63 178 0.0 3.0 0.00 0.00 0.00 76 1021.4
20260904002746 63 190 1.0 3.0 0.00 0.00 0.00 75 1021.3
20260904001745 63 189 0.0 0.0 0.00 0.00 0.00 75 1021.4
20260904000745 63 189 0.0 0.0 0.00 0.00 0.00 74 1021.4
20260903235745 63 189 0.0 0.0 0.00 0.00 0.00 74 1021.5
20260903234745 64 189 0.0 2.0 0.00 0.00 0.00 73 1021.5
20260903233745 64 189 0.0 0.0 0.00 0.00 0.00 73 1021.7
20260903232745 64 189 0.0 0.0 0.00 0.00 0.00 72 1021.6
20260903231745 64 189 0.0 2.0 0.00 0.00 0.00 72 1021.6
20260903230744 64 189 0.0 1.0 0.00 0.00 0.00 72 1021.5
20260903225744 65 189 1.0 2.0 0.00 0.00 0.00 71 1021.6
20260903224746 65 199 0.0 2.0 0.00 0.00 0.00 71 1021.6
20260903223746 65 199 0.0 0.0 0.00 0.00 0.00 70 1021.5
20260903222746 65 199 0.0 2.0 0.00 0.00 0.00 70 1021.6
20260903221745 66 199 0.0 1.0 0.00 0.00 0.00 69 1021.6
20260903220745 67 200 1.0 3.0 0.00 0.00 0.00 67 1021.6
20260903215745 67 201 0.0 2.0 0.00 0.00 0.00 67 1021.5
20260903214745 67 196 1.0 3.0 0.00 0.00 0.00 67 1021.8
20260903213746 67 195 1.0 3.0 0.00 0.00 0.00 66 1021.7
20260903212746 67 200 0.0 3.0 0.00 0.00 0.00 66 1021.7
20260903211745 67 201 1.0 2.0 0.00 0.00 0.00 66 1021.6
20260903210745 67 218 1.0 3.0 0.00 0.00 0.00 66 1021.5
20260903205745 67 237 1.0 4.0 0.00 0.00 0.00 66 1021.6
20260903204745 67 285 1.0 2.0 0.00 0.00 0.00 67 1021.3
20260903203745 67 285 1.0 2.0 0.00 0.00 0.00 68 1021.4
20260903202745 67 285 0.0 1.0 0.00 0.00 0.00 68 1021.7
20260903201744 68 285 0.0 0.0 0.00 0.00 0.00 67 1021.8
20260903200744 68 285 0.0 0.0 0.00 0.00 0.00 66 1021.8
20260903195744 68 285 0.0 1.0 0.00 0.00 0.00 65 1021.6
20260903194746 68 285 0.0 2.0 0.00 0.00 0.00 64 1021.4
20260903193746 69 285 0.0 1.0 0.00 0.00 0.00 63 1021.3
20260903192746 69 285 0.0 1.0 0.00 0.00 0.00 62 1021.2
20260903191745 70 285 0.0 2.0 0.00 0.00 0.00 60 1021.1
20260903190745 70 285 0.0 2.0 0.00 0.00 0.00 59 1020.9
20260903185745 70 285 0.0 2.0 0.00 0.00 0.00 59 1020.9
20260903184745 70 287 0.0 1.0 0.00 0.00 0.00 60 1020.9
20260903183745 70 287 0.0 1.0 0.00 0.00 0.00 59 1020.7
20260903182745 71 287 0.0 2.0 0.00 0.00 0.00 58 1020.7
20260903181745 71 287 0.0 0.0 0.00 0.00 0.00 57 1020.8
20260903180745 71 287 0.0 0.0 0.00 0.00 0.00 57 1020.6
20260903175745 72 287 0.0 2.0 0.00 0.00 0.00 56 1020.5
20260903174745 72 287 0.0 2.0 0.00 0.00 0.00 55 1020.4
20260903173745 73 287 0.0 0.0 0.00 0.00 0.00 54 1020.3
20260903172745 74 287 0.0 1.0 0.00 0.00 0.00 53 1020.4
20260903171744 74 286 0.0 2.0 0.00 0.00 0.00 53 1020.4
20260903170744 74 295 0.0 2.0 0.00 0.00 0.00 52 1020.3
20260903165744 75 259 0.0 2.0 0.00 0.00 0.00 51 1020.3
20260903164746 75 293 2.0 3.0 0.00 0.00 0.00 50 1020.3
20260903163746 75 295 1.0 2.0 0.00 0.00 0.00 51 1020.2
20260903162744 76 160 0.0 3.0 0.00 0.00 0.00 56 1020.1
20260903161744 76 151 1.0 3.0 0.00 0.00 0.00 56 1020.0
20260903160744 76 193 2.0 4.0 0.00 0.00 0.00 54 1020.1
20260903155744 77 150 2.0 7.0 0.00 0.00 0.00 53 1020.2
20260903154744 77 146 2.0 7.0 0.00 0.00 0.00 52 1020.3
20260903153744 77 120 2.0 6.0 0.00 0.00 0.00 55 1020.3
20260903152746 77 168 3.0 7.0 0.00 0.00 0.00 54 1020.4
20260903151746 78 160 5.0 9.0 0.00 0.00 0.00 52 1020.3
20260903150746 78 264 3.0 7.0 0.00 0.00 0.00 53 1020.5
20260903145745 78 260 2.0 8.0 0.00 0.00 0.00 54 1020.2
20260903144745 78 168 2.0 9.0 0.00 0.00 0.00 53 1020.1
20260903143745 78 152 2.0 8.0 0.00 0.00 0.00 53 1020.1
20260903142744 79 118 2.0 8.0 0.00 0.00 0.00 51 1020.2
20260903141744 78 264 2.0 6.0 0.00 0.00 0.00 51 1020.5
20260903140744 78 274 2.0 6.0 0.00 0.00 0.00 51 1020.6
20260903135745 79 207 4.0 9.0 0.00 0.00 0.00 51 1020.6
20260903134744 80 250 3.0 8.0 0.00 0.00 0.00 50 1020.6
20260903133744 78 172 3.0 8.0 0.00 0.00 0.00 51 1020.6
20260903132744 76 176 3.0 8.0 0.00 0.00 0.00 54 1020.9
20260903131744 76 223 3.0 7.0 0.00 0.00 0.00 52 1020.8
20260903130744 77 170 1.0 6.0 0.00 0.00 0.00 51 1021.0
20260903125745 78 138 2.0 8.0 0.00 0.00 0.00 48 1020.9
20260903124745 78 217 3.0 5.0 0.00 0.00 0.00 48 1020.8
20260903123744 78 314 1.0 8.0 0.00 0.00 0.00 49 1020.9
20260903122744 77 266 2.0 6.0 0.00 0.00 0.00 48 1020.7
20260903121746 77 243 2.0 11.0 0.00 0.00 0.00 47 1020.9
20260903120747 78 265 3.0 8.0 0.00 0.00 0.00 46 1020.8
20260903115747 78 272 2.0 5.0 0.00 0.00 0.00 46 1020.9
20260903114747 78 242 3.0 9.0 0.00 0.00 0.00 47 1021.1
20260903113747 78 281 2.0 10.0 0.00 0.00 0.00 48 1021.1
20260903112747 78 273 2.0 9.0 0.00 0.00 0.00 50 1021.2
20260903111746 77 272 1.0 5.0 0.00 0.00 0.00 51 1021.4
20260903110746 76 202 3.0 8.0 0.00 0.00 0.00 53 1021.5
20260903105747 76 249 1.0 10.0 0.00 0.00 0.00 51 1021.6
20260903104747 76 249 4.0 7.0 0.00 0.00 0.00 53 1021.6
20260903103747 76 106 5.0 8.0 0.00 0.00 0.00 51 1021.7
20260903102746 75 316 3.0 8.0 0.00 0.00 0.00 54 1021.7
20260903101747 75 151 3.0 7.0 0.00 0.00 0.00 54 1021.8
20260903100747 74 254 1.0 8.0 0.00 0.00 0.00 54 1021.9
20260903095747 74 258 5.0 9.0 0.00 0.00 0.00 53 1022.2
20260903094747 74 227 2.0 7.0 0.00 0.00 0.00 54 1022.1
20260903093747 73 246 1.0 6.0 0.00 0.00 0.00 56 1022.1
20260903092746 72 218 2.0 8.0 0.00 0.00 0.00 55 1022.1
20260903091746 72 187 1.0 6.0 0.00 0.00 0.00 57 1022.1
20260903090746 72 314 3.0 9.0 0.00 0.00 0.00 55 1022.0
20260903085747 72 209 3.0 7.0 0.00 0.00 0.00 55 1022.2
20260903084747 72 278 2.0 6.0 0.00 0.00 0.00 58 1022.2
20260903083747 71 208 2.0 5.0 0.00 0.00 0.00 63 1022.6
20260903082747 70 144 2.0 5.0 0.00 0.00 0.00 63 1022.4
20260903081746 69 155 1.0 4.0 0.00 0.00 0.00 69 1022.6
20260903080746 68 232 1.0 4.0 0.00 0.00 0.00 70 1022.4
20260903075746 67 263 2.0 4.0 0.00 0.00 0.00 72 1022.2
20260903074747 66 220 1.0 2.0 0.00 0.00 0.00 75 1022.2